Weather History for Hayward, WI

Change the Weather History Date:

Tuesday, June 3, 2014

  Actual Average Record
Temperature  
Mean Temperature 64 °F -  
Max Temperature 75 °F 68 °F 83 °F (1972)
Min Temperature 53 °F 40 °F 34 °F (2004)
Degree Days  
Heating Degree Days 1    
Growing Degree Days 14 (Base 50)    
Moisture  
Dew Point 50 °F    
Average Humidity 67    
Maximum Humidity 90    
Minimum Humidity 40    
Precipitation  
Precipitation 0.00 in - - ()
Sea Level Pressure  
Sea Level Pressure 29.84 in    
Wind  
Wind Speed 7 mph (West)    
Max Wind Speed 12 mph    
Max Gust Speed 23 mph    
Visibility 10 miles    
Events Rain    
Averages and records for this station are not official NWS values.
T = Trace of Precipitation, MM = Missing Value Source: NWS Daily Summary

Daily Weather History Graph

Daily Weather History Graph

Search for Another Location

Airport:

Trip Planner

Search our weather history database for the weather conditions in past years. The results will help you decide how hot, cold, wet, or windy it might be!

Date:

Astronomy

Jun. 03, 2014 Rise Set
Actual Time 5:17 AM CDT 8:50 PM CDT
Civil Twilight 4:39 AM CDT 9:28 PM CDT
Nautical Twilight 3:49 AM CDT 10:18 PM CDT
Astronomical Twilight 2:43 AM CDT 11:25 PM CDT
Moon 10:52 AM CDT (6/3) 12:08 AM CDT (6/3)
Length of Visible Light 16h 48m
Length of Day
15h 33m
Waxing Crescent, 30% of the Moon is Illuminated
Jun 3
Waxing Crescent
Jun 5
First Quarter
Jun 12
Full
Jun 19
Last Quarter
Jun 27
New

Hourly Weather History & Observations

Time (CDT) Temp. Dew Point Humidity Pressure Visibility Wind Dir Wind Speed Gust Speed Precip Events Conditions
12:53 AM 57.0 °F 53.1 °F 87% 29.71 in 10.0 mi West 8.1 mph 20.7 mph 0.00 in Rain Light Rain
1:53 AM 55.9 °F 52.0 °F 87% 29.74 in 10.0 mi North - - 0.00 in   Overcast
2:45 AM 54.0 °F 51.1 °F 90% 29.76 in 10.0 mi West 9.2 mph 17.3 mph N/A   Overcast
2:53 AM 54.0 °F 51.1 °F 90% 29.77 in 10.0 mi West 9.2 mph 16.1 mph N/A   Mostly Cloudy
3:43 AM 55.0 °F 48.0 °F 77% 29.79 in 10.0 mi West 10.4 mph 17.3 mph N/A   Mostly Cloudy
3:53 AM 54.0 °F 48.0 °F 80% 29.79 in 10.0 mi North - - N/A   Mostly Cloudy
4:09 AM 54.0 °F 48.9 °F 83% 29.80 in 10.0 mi Variable 6.9 mph - N/A   Scattered Clouds
4:53 AM 53.1 °F 48.0 °F 83% 29.82 in 10.0 mi Variable 5.8 mph - N/A   Clear
5:53 AM 53.1 °F 48.0 °F 83% 29.85 in 10.0 mi Variable 4.6 mph - N/A   Overcast
6:02 AM 54.0 °F 48.0 °F 80% 29.85 in 10.0 mi Variable 5.8 mph - N/A   Overcast
6:49 AM 53.6 °F 48.2 °F 82% 29.87 in 10.0 mi Variable 4.6 mph - N/A   Scattered Clouds
6:53 AM 54.0 °F 48.9 °F 83% 29.86 in 10.0 mi Variable 4.6 mph - N/A   Scattered Clouds
7:53 AM 57.9 °F 51.1 °F 78% 29.86 in 10.0 mi Variable 5.8 mph - N/A   Partly Cloudy
8:53 AM 61.0 °F 50.0 °F 67% 29.87 in 10.0 mi West 11.5 mph 19.6 mph N/A   Partly Cloudy
9:53 AM 64.0 °F 48.9 °F 58% 29.88 in 10.0 mi WSW 9.2 mph 20.7 mph N/A   Partly Cloudy
10:53 AM 66.0 °F 48.0 °F 52% 29.88 in 10.0 mi WNW 8.1 mph 21.9 mph N/A   Partly Cloudy
11:53 AM 70.0 °F 46.9 °F 44% 29.89 in 10.0 mi Variable 6.9 mph 23.0 mph N/A   Partly Cloudy
12:53 PM 71.1 °F 46.0 °F 41% 29.89 in 9.0 mi Variable 5.8 mph 20.7 mph N/A   Mostly Cloudy
1:53 PM 71.1 °F 48.0 °F 44% 29.88 in 10.0 mi Variable 5.8 mph - N/A   Mostly Cloudy
2:53 PM 72.0 °F 50.0 °F 46% 29.88 in 10.0 mi WSW 9.2 mph 21.9 mph N/A   Mostly Cloudy
3:53 PM 72.0 °F 50.0 °F 46% 29.88 in 10.0 mi WSW 6.9 mph - N/A   Mostly Cloudy
4:53 PM 73.9 °F 48.9 °F 41% 29.86 in 6.0 mi Variable 6.9 mph - N/A   Haze
5:53 PM 75.0 °F 48.9 °F 40% 29.86 in 10.0 mi Variable 5.8 mph - N/A   Mostly Cloudy
6:53 PM 73.0 °F 50.0 °F 44% 29.86 in 10.0 mi West 4.6 mph - N/A   Scattered Clouds
7:53 PM 72.0 °F 48.9 °F 44% 29.84 in 10.0 mi Calm Calm - N/A   Scattered Clouds
8:53 PM 64.0 °F 55.0 °F 73% 29.85 in 10.0 mi Calm Calm - N/A   Clear
10:53 PM 57.0 °F 54.0 °F 89% 29.89 in 10.0 mi Calm Calm - N/A   Scattered Clouds